Capitol Logistics 942


EHAM
Schiphol International Airport
Amsterdam, NL
ELLX
Luxembourg-Findel International Airport
Luxembourg, LU

Activity Log

Date Flight Route Aircraft Duration
10/28/2019 CPX942 Not Available B738 1h 01m
10/19/2019 CPX942 N0414F230 LOPI3E LOPIK UN852 LNO LNO6M B738 0h 54m

Route Details

Aircraft Information
Primary: Boeing 737-800BCF
Backup: Not Available
Route Data
Distance: 170nm
Sched. Duration: 0h 45m
Avg. Duration: 0h 77m (+33m)
Times Flown: 2
Recm'd Route: Not Available
Planned Altitude: 22,000ft
Origin Wx: EHAM 190825Z 23024G35KT 6000 -RADZ FEW006 SCT007 BKN009 09/08 Q1001 BECMG 8000 BKN012
Dest. Wx: ELLX 190820Z 21013KT 9999 -RA SCT015 BKN022 02/M00 Q1014 TEMPO 22015G25KT 3500 -RASN BECMG BKN013
Notes:

Financial History
Total Freight: 54,912lbs
Average Load: 27,456lbs/flt
Fuel Used: 8,781lbs
Avg. Fuel Used: 4,391lbs/flt
Fuel Expense: $7,025
Avg. Fuel Expense: $3,512
Avg. Fuel Cost: $0.80/lbs
Total Gross Income: $109,824
Pilot Pay: $458
Total Expenses: $11,965
Total Revenue: $90,385
Average Revenue: $54,912.00